CZ-4B DEB, 44589

Orbit data source: Space-Track

CZ-4B DEB, 44589 is space debris in SSO originally from a launch on Thu, 14 Oct 1999 UTC launched from the Taiyaun Space Center, China (TSC). Debris objects in space refer to the collection of defunct objects orbiting the Earth. Examples of debris include non-operational satellites, rocket bodies, and fragments generated from explosions, collisions, or faulty payload assembly.

Loading next visibility...
CZ-4B DEB details
Identifier
44589, 1999-057TB
Orbit
SSO
Last TLE update2 days ago
Origin
Flag of CNCNSA (CN / PRC)
ManufacturerUnknown
MissionSpacecraft
Bus & MotorUnknown
MassUnknown
Launch date (UTC)
1999-10-14 (25 years ago)
Launch vehicleUnknown
Launch site
Taiyaun Space Center, China (TSC)
Object type
Payload
Rocket body
Debris
Shape & HBRUnknown
Radar Cross SectionSmall (<0.1 m²)

Expand to show TLE details & history

TLE from 2 days ago
0 CZ-4B DEB
1 44589U 99057TB  24346.76247519  .00001502  00000-0  21940-3 0  9997
2 44589  98.8207 166.2463 0083105 312.9568  46.4688 14.75214006594177
Epoch: 2024-12-11T18:17Z
Definitive object data (Epoch: 2024-12-11T18:17:57.856Z)
Latitude-0.0001°
Longitude170.80274°
Altitude607.511 km
Speed7.577 km/s
True Right ascension11h 04m 59s
True Declination0° 00' 00"
Sunlit
Object was in daylight at TLE epoch
Visualization TLE readout
Latitude-14.36844°
Longitude-9.6498°
Altitude673.171 km
Speed7.507 km/s
Apparent Right ascension22h 05m 51s
Apparent Declination-27° 23' 03"
Sunlit
Object is in daylight
Visualization observer readout
Local Sidereal Time08:45:04
Azimuth300.695° NW
Elevation-69.117°
Doppler factor1
Orbital elements
Apogee altitude699.9 km
Perigee altitude583.225 km
Semi-major axis7,019.699 km
Eccentricity0.0083105
Inclination98.8207°
RAAN166.2463°
Arg. of periapsis312.9568°
True anomaly47.16418°
Mean anomaly46.4688°
Eccentric anomaly46.81599°
Mean motion3.69033 °/min
BSTAR0.0002194
Orbital period97.55 mins
Loading maneuver chart data...
Loading historical data...
Loading historical data...
Loading historical data...
Loading historical data...
Loading historical data...
Loading historical data...
Loading historical data...

CZ-4B DEB Visibility forecast

Observer location: undefined°, undefined

Span
Click to sort rows by Start time (UTC) header in descending order
Start Az.
Max El. time (UTC)
Max El. Az.
Max El.
End time (UTC)
End Az.
5 mins2024-12-13 11:09:10.550Z105.468° ESE2024-12-13 11:12:10.550Z55.857° ENE19.245°2024-12-13 11:14:10.550Z25.509° NE
6 mins2024-12-13 12:45:10.550Z203.779° SW2024-12-13 12:48:10.550Z269.623° W30.365°2024-12-13 12:51:10.550Z323.118° NNW
7 mins2024-12-14 00:36:10.550Z35.409° NE2024-12-14 00:39:10.550Z87.985° E32.769°2024-12-14 00:43:10.550Z165.343° S
5 mins2024-12-14 02:14:10.550Z320.765° NNW2024-12-14 02:16:10.550Z286.309° WNW19.724°2024-12-14 02:19:10.550Z246.857° WSW
|